Weather History for Billings, MT

Change the Weather History Date:

Monday, December 3, 2012

  Actual Average Record
Temperature  
Mean Temperature 43 °F 28 °F  
Max Temperature 47 °F 37 °F 63 °F (1941)
Min Temperature 38 °F 20 °F -7 °F (1972)
Degree Days  
Heating Degree Days 22 36  
Month to date heating degree days 50 108  
Since 1 July heating degree days 1432 1736  
Cooling Degree Days 0 0  
Month to date cooling degree days 0 0  
Year to date cooling degree days 958 636  
Moisture  
Dew Point 17 °F    
Average Humidity 42    
Maximum Humidity 55    
Minimum Humidity 28    
Precipitation  
Precipitation 0.00 in 0.01 in 0.29 in (2013)
Month to date precipitation T 0.05  
Year to date precipitation 6.86 13.21  
Snow  
Snow 0.00 in 0.30 in 4.40 in (2013)
Month to date snowfall 0.0 0.8  
Since 1 July snowfall 11.6 12.5  
Snow Depth 0.00 in    
Sea Level Pressure  
Sea Level Pressure 29.97 in    
Wind  
Wind Speed 17 mph (WSW)    
Max Wind Speed 30 mph    
Max Gust Speed 38 mph    
Visibility 10 miles    
Events      
T = Trace of Precipitation, MM = Missing Value Source: NWS Daily Summary

Daily Weather History Graph

Daily Weather History Graph

Search for Another Location

Airport:

Trip Planner

Search our weather history database for the weather conditions in past years. The results will help you decide how hot, cold, wet, or windy it might be!

Date:

Astronomy

Dec. 03, 2012 Rise Set
Actual Time 7:37 AM MST 4:30 PM MST
Civil Twilight 7:03 AM MST 5:04 PM MST
Nautical Twilight 6:26 AM MST 5:41 PM MST
Astronomical Twilight 5:50 AM MST 6:17 PM MST
Moon 9:29 PM MST (12/3) 10:55 AM MST (12/3)
Length of Visible Light 10h 00m
Length of Day
8h 52m
Waning Gibbous, 77% of the Moon is Illuminated
Dec 3
Waning Gibbous
Dec 6
Last Quarter
Dec 13
New
Dec 19
First Quarter
Dec 28
Full

Hourly Weather History & Observations

Time (MST) Temp. Windchill Dew Point Humidity Pressure Visibility Wind Dir Wind Speed Gust Speed Precip Events Conditions
12:53 AM 41.0 °F 31.9 °F 23.0 °F 49% 29.72 in 10.0 mi West 19.6 mph 32.2 mph N/A   Clear
1:53 AM 39.0 °F 28.8 °F 21.9 °F 50% 29.76 in 10.0 mi West 21.9 mph 27.6 mph N/A   Clear
2:53 AM 41.0 °F 29.8 °F 19.0 °F 41% 29.79 in 10.0 mi West 29.9 mph 36.8 mph N/A   Clear
3:53 AM 39.9 °F 29.7 °F 18.0 °F 41% 29.81 in 10.0 mi West 23.0 mph 31.1 mph N/A   Clear
4:53 AM 41.0 °F 30.5 °F 17.1 °F 38% 29.82 in 10.0 mi West 26.5 mph 32.2 mph N/A   Clear
5:53 AM 42.1 °F 33.3 °F 16.0 °F 35% 29.85 in 10.0 mi West 19.6 mph 28.8 mph N/A   Clear
6:53 AM 39.9 °F 32.1 °F 16.0 °F 38% 29.88 in 10.0 mi WSW 13.8 mph - N/A   Clear
7:53 AM 41.0 °F 34.3 °F 16.0 °F 36% 29.93 in 10.0 mi WSW 11.5 mph - N/A   Mostly Cloudy
8:53 AM 39.9 °F 35.1 °F 17.1 °F 40% 29.97 in 10.0 mi South 6.9 mph - N/A   Mostly Cloudy
9:53 AM 43.0 °F 35.7 °F 17.1 °F 35% 29.97 in 10.0 mi WSW 15.0 mph - N/A   Mostly Cloudy
10:53 AM 46.0 °F 38.0 °F 16.0 °F 30% 29.98 in 10.0 mi WSW 21.9 mph 25.3 mph N/A   Mostly Cloudy
11:53 AM 46.0 °F 37.2 °F 17.1 °F 31% 29.96 in 10.0 mi WSW 26.5 mph 29.9 mph N/A   Mostly Cloudy
12:53 PM 46.9 °F - 17.1 °F 30% 29.95 in 10.0 mi WSW 17.3 mph - N/A   Mostly Cloudy
1:53 PM 46.9 °F - 17.1 °F 30% 29.98 in 10.0 mi SW 8.1 mph - N/A   Mostly Cloudy
2:53 PM 46.0 °F 42.5 °F 17.1 °F 31% 29.99 in 10.0 mi SW 6.9 mph - N/A   Scattered Clouds
3:53 PM 46.0 °F 41.4 °F 18.0 °F 33% 30.01 in 10.0 mi WSW 9.2 mph - N/A   Partly Cloudy
4:53 PM 43.0 °F 36.8 °F 17.1 °F 35% 30.04 in 10.0 mi WSW 11.5 mph 21.9 mph N/A   Partly Cloudy
5:53 PM 44.1 °F 35.7 °F 17.1 °F 34% 30.04 in 10.0 mi West 20.7 mph 25.3 mph N/A   Partly Cloudy
6:53 PM 43.0 °F 34.5 °F 17.1 °F 35% 30.09 in 10.0 mi West 19.6 mph - N/A   Clear
7:53 PM 42.1 °F 34.5 °F 17.1 °F 37% 30.09 in 10.0 mi WSW 15.0 mph - N/A   Clear
8:53 PM 39.0 °F 31.0 °F 17.1 °F 41% 30.12 in 10.0 mi WSW 13.8 mph - N/A   Clear
9:53 PM 39.9 °F 30.0 °F 17.1 °F 40% 30.13 in 10.0 mi West 21.9 mph - N/A   Clear
10:53 PM 39.2 °F 31.6 °F 17.6 °F 42% 30.11 in 10.0 mi WSW 12.7 mph - N/A   Partly Cloudy
11:53 PM 37.9 °F 29.2 °F 16.0 °F 41% 30.16 in 10.0 mi WSW 15.0 mph - N/A   Clear